Location: Broletto
(44.6000°N, 10.5833°E)
Time: 01:44:37
(UTC+00:00)

Cosmos 2333 Rocket - Pass Details

Date: 18 April 2021
Orbit: 838 x 864 km, 70.8° (Epoch: 08 May)

Event Time Altitude Azimuth Distance (km) Brightness Sun altitude
Rises 19:58:28 0° 327° (NNW) 3,451 6.7 -18.5°
Reaches altitude 10° 20:01:06 10° 319° (NW) 2,508 5.9 -18.9°
Maximum altitude 20:06:20 37° 254° (WSW) 1,307 3.5 -19.6°
Enters shadow 20:10:56 13° 191° (SSW) 2,285 4.2 -20.2°
